EW2690 Weather Reports


Display with metric or nautical units.
time (UTC)temp
F
wind
direction
speed
MPH
gust
MPH
rain 1hr
in
rain 24hr
in
rain mn
in
humidity
%
barometer
mb
20260503003025 42 294 0.0 2.0 0.00 0.03 0.03 74 1026.9
20260503000326 42 229 2.0 3.0 0.00 0.03 0.03 72 1026.9
20260503000019 42 311 1.0 5.0 0.00 0.03 0.03 71 1026.8
20260502233045 43 328 3.0 5.0 0.00 0.03 0.03 70 1026.8
20260502230350 43 283 4.0 9.0 0.00 0.03 0.03 69 1026.8
20260502230023 43 290 4.0 9.0 0.00 0.03 0.03 70 1026.8
20260502223023 44 281 5.0 9.0 0.00 0.03 0.03 68 1026.8
20260502220347 44 301 4.0 11.0 0.00 0.03 0.03 66 1026.9
20260502220019 44 292 5.0 11.0 0.00 0.03 0.03 67 1026.9
20260502213016 44 30 3.0 12.0 0.00 0.03 0.03 69 1026.8
20260502210313 44 336 4.0 10.0 0.00 0.03 0.03 69 1026.7
20260502210037 44 258 6.0 10.0 0.00 0.03 0.03 69 1026.7
20260502203031 44 288 4.0 12.0 0.00 0.03 0.03 68 1026.7
20260502200310 46 296 6.0 11.0 0.00 0.03 0.03 62 1026.8
20260502200034 46 278 5.0 10.0 0.00 0.03 0.03 62 1026.9
20260502193033 48 334 4.0 13.0 0.00 0.03 0.03 65 1027.0
20260502190416 47 346 5.0 13.0 0.00 0.03 0.03 61 1027.2
20260502190030 47 280 5.0 11.0 0.00 0.03 0.03 65 1027.2
20260502183010 48 306 7.0 12.0 0.00 0.04 0.03 61 1027.2
20260502180327 48 321 7.0 12.0 0.00 0.04 0.03 60 1027.4
20260502170316 46 60 5.0 12.0 0.00 0.05 0.03 60 1027.5
20260502163014 44 344 4.0 9.0 0.00 0.12 0.03 66 1027.6
20260502160312 44 39 4.0 10.0 0.00 0.12 0.03 71 1027.7
20260502150343 42 71 2.0 8.0 0.00 0.21 0.03 73 1027.4
20260502140108 40 24 3.0 7.0 0.00 0.23 0.03 80 1027.1
20260502130323 38 350 2.0 9.0 0.00 0.29 0.03 88 1027.2
20260502123025 38 19 1.0 3.0 0.00 0.38 0.03 96 1027.0
20260502120338 37 178 1.0 2.0 0.00 0.38 0.03 97 1026.9
20260502113009 37 182 1.0 3.0 0.00 0.40 0.03 96 1026.8
20260502110351 37 181 0.0 2.0 0.01 0.40 0.03 96 1026.6
20260502110045 37 181 1.0 2.0 0.01 0.40 0.03 96 1026.6
20260502103018 37 182 1.0 2.0 0.01 0.42 0.03 95 1026.4
20260502100427 37 182 1.0 2.0 0.00 0.41 0.02 95 1026.3
20260502100104 37 182 0.0 2.0 0.00 0.41 0.02 95 1026.3
20260502090320 38 246 2.0 3.0 0.01 0.41 0.02 94 1026.0
20260502080107 39 13 1.0 2.0 0.01 0.40 0.01 92 1025.7
20260502070346 39 13 2.0 3.0 0.00 0.39 0.00 91 1025.7
20260502070021 39 13 1.0 3.0 0.00 0.39 0.00 91 1025.8
20260502063017 39 25 1.0 2.0 0.00 0.39 0.00 89 1025.9
20260502060334 39 14 0.0 1.0 0.00 0.39 0.00 89 1026.2
20260502060033 39 14 0.0 1.0 0.00 0.39 0.00 89 1026.3
20260502053011 40 17 0.0 3.0 0.00 0.39 0.00 93 1026.5
20260502050324 40 287 1.0 2.0 0.00 0.39 0.00 95 1026.5
20260502050109 40 287 0.0 1.0 0.00 0.39 0.00 95 1026.5
20260502043023 40 287 1.0 2.0 0.00 0.39 0.00 96 1026.4
20260502040316 39 287 0.0 0.0 0.00 0.39 0.00 97 1026.0
20260502040049 39 287 0.0 0.0 0.00 0.39 0.00 97 1026.0
20260502033046 39 287 0.0 1.0 0.00 0.39 0.39 97 1025.9
20260502030326 39 287 1.0 1.0 0.00 0.39 0.39 97 1025.9
20260502030019 39 287 1.0 1.0 0.00 0.39 0.39 97 1025.9
20260502023017 39 288 0.0 0.0 0.00 0.39 0.39 96 1025.9
20260502020403 38 288 1.0 2.0 0.00 0.39 0.39 95 1025.7
20260502020100 38 288 1.0 2.0 0.00 0.39 0.39 95 1025.7
20260502020018 38 288 1.0 2.0 0.00 0.39 0.39 95 1025.7
20260502013035 39 287 0.0 2.0 0.00 0.39 0.39 93 1025.4
20260502010354 40 287 0.0 2.0 0.00 0.39 0.39 91 1025.1
20260502010009 40 287 1.0 2.0 0.00 0.39 0.39 91 1025.2